Date String (YYYY-MM-DD hh:mm:ss) UTC,Instrument flags,Ambient pressure (hPa),Sample flow (lpm),Bypass flow (lpm),Sample temperature (°C),Ambient temperature (°C),ASC tube jacket temperature (°C),LED temperature (°C),Box temperature (°C),Sample RH (%),Span deviation,Mass concentration (μg/m³),Mass concentration (μg/m³),Mass concentration (μg/m³)
DateTimeUTC,F1_M11,P_M11,Q1_M11,Q2_M11,T1_M11,T2_M11,T3_M11,T4_M11,T5_M11,U1_M11,ZSPAN_M11,X0_M11,X2_M11,X1_M11
2022-12-16 16:00:00,,0824.2,5.01,0.00,21.9,22.4,00.0,30.5,23.9,03.0,0000.0,0002.96,0001.19,0001.10
2022-12-16 16:01:00,,0824.3,5.00,0.00,22.0,21.9,00.0,30.6,23.9,03.0,0000.0,0003.02,0001.21,0001.09
2022-12-16 16:02:00,,0824.3,4.99,0.00,21.9,21.5,00.0,30.6,23.8,03.0,0000.0,0003.01,0001.21,0001.09
2022-12-16 16:03:00,,0824.2,4.98,0.00,21.9,21.1,00.0,30.6,23.7,03.2,0000.0,0002.99,0001.20,0001.08
2022-12-16 16:04:00,,0824.1,5.04,0.00,21.9,20.9,00.0,30.7,23.6,03.1,0000.0,0002.96,0001.19,0001.07
2022-12-16 16:05:00,,0824.2,4.97,0.00,21.9,20.7,00.0,30.7,23.6,03.1,0000.0,0002.97,0001.18,0001.05
2022-12-16 16:06:00,,0824.2,5.03,0.00,21.9,20.6,00.0,30.7,23.6,03.1,0000.0,0002.26,0001.18,0001.05
2022-12-16 16:07:00,,0824.2,4.98,0.00,21.8,20.5,00.0,30.7,23.5,03.2,0000.0,0001.69,0001.19,0001.03
2022-12-16 16:08:00,,0824.2,4.97,0.00,21.8,20.3,00.0,30.7,23.5,03.1,0000.0,0002.02,0001.19,0001.02
2022-12-16 16:09:00,,0824.3,5.04,0.00,21.8,20.3,00.0,30.7,23.5,03.1,0000.0,0002.66,0001.22,0001.02
2022-12-16 16:10:00,,0824.2,4.97,0.00,21.8,20.3,00.0,30.7,23.5,03.3,0000.0,0002.64,0001.25,0001.02
2022-12-16 16:11:00,,0824.2,5.04,0.00,21.8,20.6,00.0,30.6,23.5,03.3,0000.0,0002.64,0001.26,0001.03
2022-12-16 16:12:00,,0824.2,4.96,0.00,21.9,22.0,00.0,30.6,23.8,03.2,0000.0,0002.59,0001.23,0001.03
2022-12-16 16:13:00,,0824.3,5.01,0.00,22.0,22.6,00.0,30.6,24.0,03.1,0000.0,0002.59,0001.23,0001.02
2022-12-16 16:14:00,,0824.2,5.00,0.00,22.1,22.3,00.0,30.7,24.0,03.1,0000.0,0002.62,0001.23,0001.01
2022-12-16 16:15:00,,0824.2,4.99,0.00,22.1,21.9,00.0,30.8,24.0,03.2,0000.0,0002.62,0001.23,0001.01
2022-12-16 16:16:00,,0824.2,4.99,0.00,22.1,21.4,00.0,30.8,23.9,03.2,0000.0,0002.67,0001.24,0001.01
2022-12-16 16:17:00,,0824.3,5.03,0.00,22.0,21.1,00.0,30.8,23.8,03.2,0000.0,0002.63,0001.23,0001.01
2022-12-16 16:18:00,,0824.3,4.98,0.00,22.0,20.9,00.0,30.8,23.8,03.0,0000.0,0002.60,0001.21,0001.00
2022-12-16 16:19:00,,0824.3,5.03,0.00,22.0,20.8,00.0,30.8,23.7,03.1,0000.0,0002.52,0001.17,0001.00
2022-12-16 16:20:00,,0824.2,4.97,0.00,22.0,20.7,00.0,30.8,23.7,03.2,0000.0,0002.09,0001.17,0001.00
2022-12-16 16:21:00,,0824.2,4.98,0.00,22.0,20.6,00.0,30.8,23.6,03.1,0000.0,0001.56,0001.15,0000.99
2022-12-16 16:22:00,,0824.2,5.03,0.00,21.9,20.5,00.0,30.8,23.5,03.1,0000.0,0001.52,0001.13,0000.99
2022-12-16 16:23:00,,0824.4,4.97,0.00,21.9,20.5,00.0,30.8,23.5,03.1,0000.0,0001.50,0001.11,0000.98
2022-12-16 16:24:00,,0824.2,5.05,0.00,21.9,20.4,00.0,30.8,23.5,03.2,0000.0,0001.49,0001.10,0000.97
2022-12-16 16:25:00,,0824.3,4.98,0.00,21.9,20.4,00.0,30.8,23.4,03.1,0000.0,0001.53,0001.13,0000.98
2022-12-16 16:26:00,,0824.2,4.98,0.00,21.9,20.8,00.0,30.7,23.5,03.2,0000.0,0001.55,0001.12,0000.98
2022-12-16 16:27:00,,0824.2,5.04,0.00,22.0,22.1,00.0,30.7,23.9,03.1,0000.0,0001.57,0001.13,0000.97
2022-12-16 16:28:00,,0824.2,4.96,0.00,22.1,22.8,00.0,30.7,24.1,03.1,0000.0,0001.56,0001.13,0000.97
2022-12-16 16:29:00,,0824.2,5.00,0.00,22.2,22.3,00.0,30.8,24.1,03.0,0000.0,0001.54,0001.12,0000.97
2022-12-16 16:30:00,,0824.2,5.02,0.00,22.1,21.8,00.0,30.8,24.0,03.2,0000.0,0001.56,0001.13,0000.97
2022-12-16 16:31:00,,0824.3,4.96,0.00,22.1,21.5,00.0,30.9,23.9,03.2,0000.0,0001.59,0001.13,0000.97
2022-12-16 16:32:00,,0824.3,5.04,0.00,22.1,21.2,00.0,30.9,23.8,03.0,0000.0,0001.63,0001.14,0000.97
2022-12-16 16:33:00,,0824.3,4.97,0.00,22.1,21.0,00.0,30.9,23.7,03.1,0000.0,0001.62,0001.14,0000.97
2022-12-16 16:34:00,,0824.3,5.02,0.00,22.0,20.9,00.0,30.9,23.7,03.1,0000.0,0001.64,0001.15,0000.97
2022-12-16 16:35:00,,0824.3,5.00,0.00,22.0,20.8,00.0,30.9,23.7,03.1,0000.0,0001.62,0001.15,0000.97
2022-12-16 16:36:00,,0824.4,4.98,0.00,22.0,20.7,00.0,30.8,23.6,03.1,0000.0,0001.56,0001.13,0000.97
2022-12-16 16:37:00,,0824.4,5.04,0.00,22.0,20.6,00.0,30.8,23.6,03.2,0000.0,0001.57,0001.13,0000.97
2022-12-16 16:38:00,,0824.4,4.98,0.00,22.0,20.5,00.0,30.8,23.5,03.1,0000.0,0001.52,0001.13,0000.98
2022-12-16 16:39:00,,0824.3,5.02,0.00,21.9,20.4,00.0,30.8,23.5,03.1,0000.0,0001.50,0001.11,0000.98
2022-12-16 16:40:00,,0824.3,5.00,0.00,21.9,20.4,00.0,30.8,23.5,03.1,0000.0,0001.50,0001.12,0000.98
2022-12-16 16:41:00,,0824.3,4.98,0.00,21.9,20.5,00.0,30.8,23.5,03.1,0000.0,0001.51,0001.12,0000.98
2022-12-16 16:42:00,,0824.3,5.05,0.00,21.9,21.5,00.0,30.7,23.8,03.1,0000.0,0001.57,0001.13,0000.98
2022-12-16 16:43:00,,0824.3,4.96,0.00,22.1,22.6,00.0,30.8,24.1,03.0,0000.0,0001.55,0001.11,0000.98
2022-12-16 16:44:00,,0824.3,5.01,0.00,22.2,22.5,00.0,30.8,24.1,03.0,0000.0,0001.54,0001.11,0000.98
2022-12-16 16:45:00,,0824.2,5.00,0.00,22.2,22.0,00.0,30.9,24.0,03.0,0000.0,0001.48,0001.09,0000.98
2022-12-16 16:46:00,,0824.3,5.03,0.00,22.1,21.6,00.0,30.9,23.9,03.1,0000.0,0001.52,0001.11,0000.98
2022-12-16 16:47:00,,0824.3,4.96,0.00,22.1,21.3,00.0,30.9,23.8,03.0,0000.0,0001.54,0001.12,0000.98
2022-12-16 16:48:00,,0824.3,5.05,0.00,22.1,21.1,00.0,30.9,23.8,03.1,0000.0,0001.49,0001.09,0000.97
2022-12-16 16:49:00,,0824.3,4.98,0.00,22.1,21.0,00.0,30.9,23.7,03.2,0000.0,0001.59,0001.10,0000.96
2022-12-16 16:50:00,,0824.2,4.97,0.00,22.0,20.8,00.0,30.9,23.7,03.1,0000.0,0001.61,0001.11,0000.97
2022-12-16 16:51:00,,0824.3,5.05,0.00,22.0,20.7,00.0,30.9,23.6,03.1,0000.0,0001.60,0001.11,0000.96
2022-12-16 16:52:00,,0824.3,4.97,0.00,22.0,20.6,00.0,30.9,23.5,03.1,0000.0,0001.69,0001.15,0000.96
2022-12-16 16:53:00,,0824.3,5.01,0.00,22.0,20.5,00.0,30.8,23.5,03.0,0000.0,0001.62,0001.14,0000.95
2022-12-16 16:54:00,,0824.3,5.01,0.00,21.9,20.5,00.0,30.8,23.5,03.0,0000.0,0001.56,0001.12,0000.95
2022-12-16 16:55:00,,0824.3,4.97,0.00,21.9,20.4,00.0,30.8,23.4,03.1,0000.0,0001.59,0001.12,0000.94
2022-12-16 16:56:00,,0824.3,5.04,0.00,21.9,20.4,00.0,30.8,23.3,03.0,0000.0,0001.60,0001.12,0000.94
2022-12-16 16:57:00,,0824.3,4.97,0.00,21.8,20.3,00.0,30.8,23.4,03.1,0000.0,0001.59,0001.10,0000.93
2022-12-16 16:58:00,,0824.2,5.03,0.00,21.8,20.3,00.0,30.8,23.4,03.2,0000.0,0001.79,0001.10,0000.92
2022-12-16 16:59:00,,0824.2,4.98,0.00,21.9,21.3,00.0,30.7,23.6,03.1,0000.0,0002.36,0001.12,0000.93
